Powrót do katalogu

SL-16 DEB

AktywnyLEO
NORAD 39850·DEBRIS·🇷🇺 Russia

Wystrzelony Dec 25, 1992 z Baikonur Cosmodrome

Loading…

Następne Przeloty (najbliższe 24 godziny)

TLE

NieaktualneSource: Space-Track

Epoka: Aug 31, 2026, 23:40 UTC

1 39850U 92093LC  26243.98645660  .00000471  00000-0  29086-3 0  9999
2 39850  71.3393 335.3799 0091968 280.3850  78.6915 14.08181171347003

Śledź SL-16 DEB w czasie rzeczywistym z AllMySat

Download on the App Store